Weather observations for the past three days for
Cocoa - Patrick Air Force Base
| Date | Time (edt) | Wind (mph) | Vis. (mi.) | Weather | Sky Cond. | Temperature (ºF) | Relative Humidity | Wind Chill (°F) | Heat Index (°F) | Pressure | Precipitation (in) | ||||||
|---|---|---|---|---|---|---|---|---|---|---|---|---|---|---|---|---|---|
| Air | Dwpt | 6 hour | altimeter (in) | sea level (mb) | 1 hr | 3 hr | 6 hr | ||||||||||
| Max. | Min. | ||||||||||||||||
| 06 | 07:55 | S 5 | 10.00 | Fair | CLR | 76.5 | 69.8 | 76.5 | 73.9 | 80% | 78 | 29.99 | 1016.0 | ||||
| 06 | 06:55 | S 3 | 10.00 | Fair | CLR | 75.7 | 69.1 | 80% | 77 | 29.98 | 1015.7 | ||||||
| 06 | 05:55 | S 3 | 10.00 | Fair | CLR | 75.6 | 68.9 | 80% | 76 | 29.96 | 0.0 | ||||||
| 06 | 04:55 | SE 6 | 10.00 | Fair | CLR | 75.6 | 68.9 | 80% | 76 | 29.96 | 1015.0 | ||||||
| 06 | 03:55 | SE 8 | 10.00 | Fair | CLR | 75.9 | 67.5 | 75% | 77 | 29.96 | 0.0 | ||||||
| 06 | 02:55 | SE 8 | 10.00 | Fair | CLR | 75.9 | 66.9 | 74% | 77 | 29.97 | 0.0 | ||||||
| 06 | 01:55 | SE 9 | 10.00 | Fair | CLR | 76.3 | 65.3 | 77 | 75.7 | 69% | 78 | 29.98 | 1015.7 | ||||
| 06 | 00:55 | SE 8 | 10.00 | Fair | CLR | 76.3 | 63.7 | 65% | 78 | 29.99 | 1016.0 | ||||||
| 05 | 23:55 | E 8 | 10.00 | Fair | CLR | 76.6 | 64.8 | 67% | 78 | 29.99 | 1016.0 | ||||||
| 05 | 22:55 | E 10 | 10.00 | Fair | CLR | 76.5 | 64.6 | 67% | 78 | 29.99 | 1016.0 | ||||||
| 05 | 21:55 | E 9 | 10.00 | Fair | CLR | 76.5 | 63.9 | 65% | 78 | 29.98 | 1015.7 | ||||||
| 05 | 20:55 | E 8 | 10.00 | Fair | CLR | 76.5 | 60.6 | 58% | 78 | 29.96 | 1015.0 | ||||||
| 05 | 19:55 | E 9 | 10.00 | Fair | CLR | 76.8 | 62.2 | 81.5 | 76.6 | 61% | 79 | 29.96 | 1015.0 | ||||
| 05 | 18:55 | E 12 | 10.00 | Fair | CLR | 78.3 | 61.2 | 56% | 80 | 29.96 | 1015.0 | ||||||
| 05 | 17:55 | E 10 | 10.00 | Fair | CLR | 0 | 0 | 0% | 29.96 | 0.0 | |||||||
| 05 | 16:55 | E 12 | 10.00 | Fair | CLR | 80.1 | 61.3 | 53% | 81 | 29.96 | 1015.0 | ||||||
| 05 | 15:55 | E 12 | 10.00 | Fair | CLR | 0 | 0 | 0% | 0 | 0.0 | |||||||
| 05 | 14:55 | E 13 | 10.00 | Fair | CLR | 80.6 | 0 | 0% | 29.98 | 1015.7 | |||||||
| 05 | 13:55 | E 12 | 10.00 | Partly Cloudy | FEW110 FEW150 SCT180 SCT200 | 82.4 | 0 | 81.9 | 76.1 | 0% | 30 | 1016.3 | |||||
| 05 | 12:55 | E 13 | 10.00 | Partly Cloudy | FEW160 SCT200 | 80.6 | 0 | 0% | 0 | 0.0 | |||||||
| 05 | 11:55 | E 10 | 10.00 | Fair | CLR | 81.3 | 62.4 | 53% | 82 | 30 | 1016.3 | ||||||
| 05 | 10:55 | E 13 | 10.00 | Fair | CLR | 80.2 | 63.1 | 56% | 82 | 29.99 | 1016.0 | ||||||
| 05 | 09:55 | E 12 | 10.00 | Fair | CLR | 79.2 | 64 | 60% | 81 | 29.99 | 1016.0 | ||||||
| 05 | 08:55 | SE 13 | 10.00 | Fair | CLR | 77.9 | 63.9 | 62% | 80 | 29.98 | 1015.7 | ||||||
| 05 | 07:55 | E 10 | 10.00 | Fair | CLR | 76.1 | 63.5 | 76.1 | 73.8 | 65% | 78 | 29.97 | 1015.3 | ||||
| 05 | 06:55 | E 13 | 10.00 | Fair | CLR | 74.1 | 62.8 | 68% | 29.95 | 1014.7 | |||||||
| 05 | 05:55 | E 7 | 10.00 | Fair | CLR | 73.9 | 63.1 | 69% | 29.93 | 1014.0 | |||||||
| 05 | 04:55 | E 7 | 10.00 | Fair | CLR | 73.9 | 63.1 | 69% | 29.93 | 1014.0 | |||||||
| 05 | 03:55 | E 8 | 10.00 | Fair | CLR | 73.9 | 62.6 | 68% | 29.93 | 1014.0 | |||||||
| 05 | 02:55 | E 12 | 10.00 | A Few Clouds | FEW029 | 74.8 | 63.9 | 69% | 29.93 | 1014.0 | |||||||
| 05 | 01:55 | E 14 | 10.00 | A Few Clouds | FEW029 FEW037 | 74.1 | 64 | 75.2 | 73.9 | 71% | 29.95 | 1014.7 | |||||
| 05 | 00:55 | E 14 | 10.00 | Fair | CLR | 74.1 | 64 | 71% | 29.96 | 1015.0 | |||||||
| 04 | 23:55 | E 15 | 10.00 | Fair | CLR | 75 | 64.9 | 71% | 77 | 29.98 | 1015.7 | ||||||
| 04 | 22:55 | E 15 | 10.00 | Fair | CLR | 74.1 | 63.3 | 69% | 29.98 | 1015.7 | |||||||
| 04 | 21:55 | E 12 | 10.00 | Fair | CLR | 73.9 | 62.6 | 68% | 29.98 | 1015.7 | |||||||
| 04 | 20:55 | E 13 | 10.00 | Fair | CLR | 74.1 | 62.1 | 66% | 29.97 | 1015.3 | |||||||
| 04 | 19:55 | E 14 | 10.00 | Partly Cloudy | FEW037 SCT050 | 74.8 | 61.9 | 79.9 | 74.7 | 64% | 29.96 | 1015.0 | |||||
| 04 | 18:55 | E 13 | 10.00 | Fair | CLR | 76.3 | 62.2 | 62% | 78 | 29.95 | 1014.7 | ||||||
| 04 | 17:55 | E 13 | 10.00 | Fair | CLR | 76.5 | 60.1 | 57% | 78 | 29.96 | 1015.0 | ||||||
| 04 | 16:55 | E 15 | 10.00 | Fair | CLR | 78.1 | 60.1 | 54% | 79 | 29.96 | 1015.0 | ||||||
| 04 | 15:55 | E 14 | 10.00 | A Few Clouds | FEW200 | 78.3 | 60.8 | 55% | 80 | 29.97 | 1015.3 | ||||||
| 04 | 14:55 | E 15 | 10.00 | A Few Clouds | FEW190 | 79.5 | 60.3 | 52% | 81 | 29.99 | 1016.0 | ||||||
| 04 | 13:55 | E 15 | 10.00 | A Few Clouds | FEW038 FEW160 | 77.5 | 60.6 | 80.6 | 75 | 56% | 79 | 30.01 | 1016.7 | ||||
| 04 | 12:55 | NE 16 | 10.00 | A Few Clouds | FEW039 FEW047 | 77.5 | 59.5 | 54% | 79 | 30.01 | 1016.7 | ||||||
| 04 | 11:55 | NE 15 G 24 | 10.00 | A Few Clouds | FEW150 | 78.8 | 61.2 | 55% | 80 | 30.02 | 1017.0 | ||||||
| 04 | 10:55 | NE 21 | 10.00 | A Few Clouds and Breezy | FEW210 | 78.6 | 61.5 | 56% | 80 | 30.02 | 1017.0 | ||||||
| 04 | 09:55 | NE 18 | 10.00 | Fair | CLR | 75.6 | 60.6 | 60% | 78 | 30 | 1016.3 | ||||||
| 04 | 08:55 | NE 18 | 10.00 | Fair | CLR | 75.7 | 60.8 | 60% | 78 | 29.98 | 1015.7 | ||||||
| 04 | 07:55 | NE 16 | 10.00 | A Few Clouds | FEW035 | 74.8 | 59.5 | 74.8 | 73.2 | 59% | 29.97 | 1015.3 | |||||
| 04 | 06:55 | NE 16 | 10.00 | Fair | CLR | 73.4 | 60.8 | 65% | 29.96 | 1015.0 | |||||||
| 04 | 05:55 | NE 15 | 10.00 | Fair | CLR | 73.8 | 61.2 | 65% | 29.95 | 1014.7 | |||||||
| 04 | 04:55 | NE 16 | 10.00 | Mostly Cloudy | SCT031 BKN043 | 74.1 | 62.8 | 68% | 29.94 | 1014.3 | |||||||
| 04 | 03:55 | NE 14 | 10.00 | Partly Cloudy | FEW029 SCT046 | 74.3 | 63 | 68% | 29.93 | 1014.0 | |||||||
| 04 | 02:55 | NE 9 | 10.00 | A Few Clouds | FEW030 | 74.1 | 62.4 | 67% | 29.95 | 1014.7 | |||||||
| 04 | 01:55 | NE 12 | 10.00 | Fair | CLR | 74.5 | 62.8 | 74.8 | 73.4 | 67% | 29.97 | 1015.3 | |||||
| 04 | 00:55 | E 10 | 10.00 | A Few Clouds | FEW047 | 74.7 | 63.3 | 68% | 29.98 | 1015.7 | |||||||
| 03 | 23:55 | E 12 | 10.00 | A Few Clouds | FEW032 | 74.7 | 62.4 | 66% | 29.99 | 1016.0 | |||||||
| 03 | 22:55 | E 10 | 10.00 | A Few Clouds | FEW033 | 74.3 | 61.7 | 65% | 30 | 1016.3 | |||||||
| 03 | 21:55 | NE 14 | 10.00 | A Few Clouds | FEW045 | 74.1 | 61.5 | 65% | 29.99 | 1016.0 | |||||||
| 03 | 20:55 | E 14 | 10.00 | A Few Clouds | FEW034 | 73.6 | 61 | 65% | 29.98 | 1015.7 | |||||||
| 03 | 19:55 | NE 14 | 10.00 | A Few Clouds | FEW031 FEW042 | 74.3 | 63 | 77.4 | 73 | 68% | 29.96 | 1015.0 | |||||
| 03 | 18:55 | NE 13 | 10.00 | Mostly Cloudy | BKN039 | 74.8 | 63.1 | 67% | 29.96 | 1015.0 | |||||||
| 03 | 17:55 | NE 13 | 10.00 | A Few Clouds | FEW049 | 74.5 | 62.8 | 67% | 29.96 | 1015.0 | |||||||
| 03 | 16:55 | NE 15 | 10.00 | Mostly Cloudy | BKN032 | 74.7 | 63.3 | 68% | 29.97 | 1015.3 | |||||||
| 03 | 15:55 | NE 15 | 10.00 | A Few Clouds | FEW160 FEW190 | 76.3 | 63.7 | 65% | 78 | 29.98 | 1015.7 | ||||||
| 03 | 14:55 | NE 15 | 10.00 | Partly Cloudy | FEW031 SCT190 | 75.9 | 63.3 | 65% | 78 | 30 | 1016.3 | ||||||
| 03 | 13:55 | N 17 | 10.00 | A Few Clouds | FEW027 FEW180 | 74.5 | 63.7 | 75.4 | 70 | 69% | 30.02 | 1017.0 | |||||
| 03 | 12:55 | N 12 | 10.00 | Partly Cloudy | SCT030 | 74.1 | 63.3 | 69% | 30.02 | 1017.0 | |||||||
| 03 | 11:55 | NE 12 | 10.00 | Light Drizzle | BKN029 | 73.6 | 63.5 | 71% | 30.03 | 1017.4 | |||||||
| 03 | 10:55 | NE 16 | 10.00 | A Few Clouds | FEW027 | 72.9 | 63.7 | 73% | 30.02 | 1017.0 | |||||||
| 03 | 09:55 | N 16 G 22 | 10.00 | Fair | CLR | 72.1 | 63.3 | 74% | 29.99 | 1016.0 | |||||||
| 03 | 08:55 | N 12 | 10.00 | Mostly Cloudy | BKN039 | 71.6 | 63.1 | 75% | 29.98 | 1015.7 | |||||||
| Date | Time (edt) | Wind (mph) | Vis. (mi.) | Weather | Sky Cond. | Air | Dwpt | Max. | Min. | Relative Humidity | Wind Chill (°F) | Heat Index (°F) | altimeter (in) | sea level (mb) | 1 hr | 3 hr | 6 hr |
| 6 hour | |||||||||||||||||
| Temperature (ºF) | Pressure | Precipitation (in) | |||||||||||||||